Location: Newark
(45.4422°N, 16.2769°E)
Time: 03:25:25
(UTC+00:00)

Courier 1B - Pass Details

Date: 15 December 2019
Orbit: 962 x 1209 km, 28.3° (Epoch: 23 January)

Event Time Altitude Azimuth Distance (km) Brightness Sun altitude
Rises 19:16:54 0° 233° (SW) 3,807 11.1 -41.8°
Reaches altitude 10° 19:20:25 10° 216° (SW) 2,900 10.2 -42.4°
Enters shadow 19:20:49 11° 213° (SSW) 2,814 10.1 -42.5°
Maximum altitude 19:25:11 19° 174° (S) 2,349 - -43.3°
Drops below altitude 10° 19:30:08 10° 132° (SE) 3,026 - -44.1°
Sets 19:33:53 0° 115° (ESE) 4,028 - -44.8°
